Location: Unspecified
(52.4292°N, 19.3359°E)
Time: 17:11:45
(UTC+02:00)

Transit 2A Rocket - Pass Details

Date: 30 May 2024
Orbit: 583 x 910 km, 66.7° (Epoch: 22 June)

Event Time Altitude Azimuth Distance (km) Brightness Sun altitude
Rises 08:14:48 0° 312° (NW) 3,317 7.9 31.5°
Reaches altitude 10° 08:17:40 10° 327° (NNW) 2,440 7.4 31.9°
Maximum altitude 08:22:12 24° 20° (NNE) 1,732 7.2 32.6°
Drops below altitude 10° 08:26:56 10° 72° (ENE) 2,565 8.8 33.3°
Sets 08:30:01 0° 86° (E) 3,528 9.4 33.8°
